www.pogodaiklimat.ru

Погода и климат >> Архив погоды >> Индия >> Ajmer


ПОГОДА в Ajmer

  • Прогноз погоды в Ajmer
  • Монитор погоды в Ajmer
  • Климат города

АРХИВ ПОГОДЫ в Ajmer

Время (UTC), дата Ветер
(напр.,м/с)
 
Видим.   Явления Облачность Т
(С)
Тd
(С)
f
(%)
Тe
(С)
Тes
(С)
Комфортность P
(гПа)
Po
(гПа)
Тmin
(С)
Tmax
(С)
R
(мм)
R24
(мм)
S
(см)
09 13.09 ЮЗ 3 4000 м 6/6 600 м
[Sc]
+30.4 +22.2 62 +39 +44 очень
душно
1004.4 1004.0
12 13.09 ЮЗ 3 4000 м 3/3
[Sc]
+29.0 +21.6 64 +37 +38 очень
душно
1004.1 1004.0 +30.5
15 13.09 ЮЗ 3 4000 м 3/0
[Ci fib]
+26.0 +21.2 75 +33 +33 очень
душно
1005.3 1005.0
18 13.09 ЮЗ 2 4000 м 3/0
[Ci fib]
+24.8 +20.8 78 +31 +31 очень
душно
1005.8 1006.0
21 13.09 ЮЗ 3 4000 м 4/0
[Ac trans Ci fib]
+24.4 +20.7 80 +30 +30 очень
душно
1005.3 1005.0
00 14.09 ЮЗ 3 4000 м 4/0
[Ac trans Ci fib]
+23.2 +20.4 84 +30 +30 очень
душно
1005.7 1006.0
03 14.09 З 3 2000 м мгла 3/0
[Ac trans]
+25.0 +21.1 79 +32 +35 очень
душно
1007.8 1008.0 +23.0 +30.5
06 14.09 З 2 4000 м мгла 4/3 600 м
[Sc Ac trans]
+29.4 +21.0 61 +37 +48 очень
душно
1008.0 1008.0
09 14.09 ЮЗ 1 4000 м мгла 6/6 1000 м
[Sc diur, vesp]
+31.0 +21.2 56 +39 +45 очень
душно
1006.6 1007.0
12 14.09 З 1 4000 м мгла 3/3 1000 м
[Sc diur, vesp]
+29.6 +20.6 58 +36 +38 очень
душно
1005.9 1006.0 +31.6
15 14.09 ЮЗ 1 4000 м мгла 3/3 1000 м
[Sc]
+26.8 +21.4 72 +34 +34 очень
душно
1007.5 1008.0
18 14.09 З 1 4000 м мгла 3/0
[Ac trans]
+25.2 +21.0 78 +32 +32 очень
душно
1008.3 1008.0
21 14.09 З 1 4000 м мгла 3/0
[Ci fib]
+24.0 +21.0 83 +30 +30 очень
душно
1008.3 1008.0
00 15.09 штиль 0 4000 м ясно +23.0 +20.5 86 +30 +30 очень
душно
1008.8 1009.0
03 15.09 З 2 2000 м мгла ясно +26.2 +20.1 69 +32 +37 очень
душно
1009.2 1009.0 +25.0 +31.6
06 15.09 З 2 2000 м мгла 6/6 1000 м
[Sc diur, vesp]
+29.2 +21.5 63 +37 +44 очень
душно
1009.9 1010.0
09 15.09 З 2 4000 м 5/4 600 м
[Sc Ac trans]
+32.0 +20.3 50 +39 +47 очень
душно
1007.8 1008.0
12 15.09 З 2 4000 м 3/3 600 м
[Sc]
+31.0 +20.5 54 +38 +39 очень
душно
1006.9 1007.0 +32.7
15 15.09 З 1 4000 м 3/0
[Ci fib]
+26.8 +20.1 67 +33 +33 очень
душно
1008.4 1008.0
18 15.09 СЗ 1 4000 м 3/0
[Ci fib]
+24.8 +21.2 80 +31 +31 очень
душно
1009.1 1009.0
21 15.09 З 1 4000 м ясно +24.2 +21.2 83 +31 +31 очень
душно
1008.3 1008.0
00 16.09 штиль 0 4000 м 3/0
[Ci fib]
+22.6 +20.1 86 +29 +29 очень
душно
1008.5 1009.0
03 16.09 ЮЗ 2 2000 м мгла ясно +26.6 +20.2 68 +33 +38 очень
душно
1009.6 1010.0 +22.2 +32.7
06 16.09 З 1 4000 м 1/0
[Ac trans]
+31.0 +20.1 52 +37 +56 опасность
солнечного
удара
1008.8 1009.0
09 16.09 штиль 0 4000 м 5/5 600 м
[Sc diur, vesp]
+33.2 +19.2 44 +39 +48 очень
душно
1005.0 1005.0
12 16.09 З 1 4000 м 3/3 600 м
[Sc diur, vesp]
+31.6 +19.1 48 +37 +38 очень
душно
1004.3 1004.0 +33.6
15 16.09 ЮЗ 1 4000 м ясно +27.2 +18.8 60 +32 +32 очень
душно
1006.3 1006.0
18 16.09 штиль 0 4000 м ясно +25.0 +18.7 68 +30 +30 душно 1005.9 1006.0
21 16.09 штиль 0 4000 м ясно +23.6 +18.9 75 +28 +28 душно 1005.6 1006.0
00 17.09 З 1 4000 м ясно +24.0 +19.3 75 +29 +29 душно 1005.5 1006.0
03 17.09 З 3 4000 м ясно +28.0 +16.8 51 +32 +36 душно 1006.2 1006.0 +22.2 +33.6
06 17.09 З 3 4000 м 1/0
[Ac trans]
+31.0 +19.1 49 +36 +49 очень
душно
1006.3 1006.0
09 17.09 З 2 4000 м 3/3 600 м
[Sc]
+33.4 +18.0 40 +38 +47 очень
душно
1005.0 1005.0
12 17.09 З 1 4000 м 3/0
[Ac trans]
+32.0 +19.9 49 +38 +39 очень
душно
1004.4 1004.0 +34.4
15 17.09 З 1 4000 м 4/0
[Ac trans]
+29.0 +18.8 54 +34 +34 очень
душно
1005.9 1006.0
18 17.09 З 1 4000 м ясно +26.6 +19.5 65 +32 +32 очень
душно
1006.3 1006.0
21 17.09 З 1 4000 м ясно +25.4 +19.2 69 +31 +31 очень
душно
1006.3 1006.0
00 18.09 З 1 4000 м ясно +24.0 +19.0 74 +29 +29 душно 1006.1 1006.0
03 18.09 З 3 4000 м ясно +28.0 +17.6 53 +32 +36 душно 1006.7 1007.0 +23.2 +34.4
06 18.09 З 3 4000 м ясно +31.4 +19.2 48 +37 +52 опасность
солнечного
удара
1006.3 1006.0
09 18.09 З 1 4000 м ясно +34.4 +17.5 37 +38 +54 опасность
солнечного
удара
1004.6 1005.0
12 18.09 З 1 4000 м ясно +33.6 +18.6 41 +38 +40 очень
душно
1003.7 1004.0 +35.0
15 18.09 штиль 0 4000 м ясно +28.6 +22.1 68 +37 +37 очень
душно
1005.7 1006.0
18 18.09 ЮЗ 1 4000 м ясно +26.2 +19.1 65 +31 +31 очень
душно
1006.6 1007.0
21 18.09 ЮЗ 1 4000 м ясно +25.4 +19.5 70 +31 +31 очень
душно
1006.5 1007.0
00 19.09 Ю 1 4000 м ясно +25.4 +17.8 63 +30 +30 душно 1006.7 1007.0
03 19.09 З 2 4000 м мгла 3/0
[Ci fib]
+28.8 +17.8 51 +33 +37 очень
душно
1008.5 1009.0 +24.0 +35.0
06 19.09 З 2 4000 м ясно +32.4 +19.3 46 +38 +56 опасность
солнечного
удара
1007.2 1007.0
09 19.09 В 1 4000 м ясно +34.2 +18.6 40 +39 +56 опасность
солнечного
удара
1005.3 1005.0
12 19.09 З 1 4000 м 3/0
[Ac trans]
+33.6 +20.5 46 +40 +41 очень
душно
1003.4 1003.0 +34.9
15 19.09 З 1 4000 м 3/0
[Ac trans]
+29.8 +18.3 50 +35 +35 очень
душно
1004.5 1005.0
18 19.09 ЮЗ 1 4000 м 5/1 600 м
[Sc Ac trans]
+27.0 +18.9 61 +32 +32 очень
душно
1004.8 1005.0
21 19.09 ЮЗ 1 4000 м 5/1 600 м
[Sc Ac trans]
+25.8 +18.2 63 +30 +30 душно 1004.5 1005.0
00 20.09 ЮЗ 3 4000 м ясно +24.4 +17.0 63 +28 +28 душно 1004.6 1005.0
03 20.09 З 1 2000 м мгла 3/0
[Ac trans]
+29.2 +16.8 47 +33 +37 очень
душно
1006.3 1006.0 +23.4 +34.9

 

Местоположение метеостанции Ajmer (Rajasthan, Индия): широта 26.45 долгота 74.62 высота над уровнем моря 486 м.

В архиве по умолчанию представлена погода в Ajmer за последнюю неделю. Архивные данные за месяц целиком и за предыдущие месяцы, начиная с января 2011 года, Вы можете получить, выбрав интересующий диапазон дат из раскрывающегося списка и нажав кнопку "Ввод!".


*Определитесь, кто Вы:
робот инопланетянин человек

Внимание! Время в таблицах - всемирное. Для получения местного времени необходимо прибавить поправку, которая в Ajmer равна 5.5 ч.

Смотрите также архив погоды в соседних городах и на ближайших метеорологических станциях:

Погода в Bhilwara (Rajasthan, Индия) (122 км)
Погода в Jaipur (Rajasthan, Индия) (124 км)
Погода в Jodhpur (Rajasthan, Индия) (160 км)
Погода в Chittorgarh (Rajasthan, Индия) (175 км)
Погода в Kota (Rajasthan, Индия) (190 км)
Погода в Churu (Rajasthan, Индия) (202 км)
Погода в Bikaner (Rajasthan, Индия) (216 км)
Погода в Maharana Pratap Airport (Rajasthan, Индия) (217 км)
Погода в Sheopur (Madhya Pradesh, Индия) (223 км)
Погода в Pilani (Rajasthan, Индия) (230 км)

Пояснения к столбцам:

Ветер - указаны скорость ветра в м/с - средняя за 10 мин, порывы в срок и между сроками (в фигурных скобках) и направление, откуда дует ветер: С - северный, СВ - северо-восточный, В - восточный, ЮВ - юго-восточный, Ю - южный, ЮЗ - юго-западный, З - западный, СЗ - северо-западный.
Видимость - горизонтальная дальность видимости в метрах или километрах. При видимости от 1 до 10 км при отсутствии осадков обычно наблюдается дымка, при ухудшении видимости до 1 км и менее - туман. В сухую погоду видимость может ухудшаться дымом, пылью или мглою.
Явления - указаны атмосферные явления, наблюдавшиеся в срок или в последний час перед сроком; фигурными скобками обозначены явления, наблюдавшиеся между сроками (за 1-3 часа до срока); квадратными скобками обозначены град или гололедные отложения с указанием их диаметра в мм.
Облачность - указаны через наклонную черту общая и нижняя облачность в баллах и высота нижней границы облаков в метрах; квадратными скобками обозначены формы облаков: Ci - перистые, Cs - перисто-слоистые, Cc - перисто-кучевые, Ac - высококучевые, As - высокослоистые, Sc - слоисто-кучевые, Ns - слоисто-дождевые, Cu - кучевые, Cb - кучево-дождевые. Подробнее классификацию облаков см. в Атласе облаков (PDF).
T - Температура воздуха - температура, измеренная на высоте 2 м над землей.
Td - Температура точки росы - температура, при понижении до которой содержащийся в воздухе водяной пар достигнет насыщения.
f - Относительная влажность воздуха - влажноcть воздуха, измеренная на высоте 2 м над землей.
Te - Эффективная температура - температура, которую ощущает одетый по сезону человек в тени. Характеристика душности погоды. При расчете учитывается влияние влажности воздуха и скорости ветра на теплоощущения человека.
Tes - Эффективная температура на солнце - температура, которую ощущает человек, с поправкой на солнечный нагрев. Характеристика знойности погоды. Зависит от высоты солнца над горизонтом, облачности и скорости ветра. Ночью, в пасмурную погоду, а также при ветре 12 м/с и более поправка равна нулю.
P - Атмосферное давление - приведенное к уровню моря атмосферное давление.
Po - Атмосферное давление - измеренное на уровне метеостанции атмосферное давление.
Tmin - Минимальная температура - минимум температуры воздуха на высоте 2 м над землей.
Tmax - Максимальная температура - максимум температуры воздуха на высоте 2 м над землей.
R - Количество осадков - Количество выпавших осадков за период времени, мм. При наведении курсора мыши на число - период времени, за который выпало указанное количество осадков.
R24 - Количество осадков - Количество выпавших осадков за 24 часа, мм.
S - Снежный покров - Высота снежного покрова, см. При наведении курсора мыши на число - состояние снежного покрова и степень покрытия местности в баллах.